Weather History for 78990 - September, 2013

Change the Weather History Date:

Wednesday, September 4, 2013

  Actual Average Record
Temperature  
Mean Temperature 84 °F -  
Max Temperature 90 °F 89 °F - ()
Min Temperature 78 °F 82 °F - ()
Cooling Degree Days 19    
Growing Degree Days 34 (Base 50)    
Moisture  
Dew Point 78 °F    
Average Humidity 81    
Maximum Humidity 100    
Minimum Humidity 59    
Precipitation  
Precipitation 0.01 in - - ()
Sea Level Pressure  
Sea Level Pressure 29.83 in    
Wind  
Wind Speed 4 mph ()    
Max Wind Speed 9 mph    
Max Gust Speed -    
Visibility 6.2 miles    
Events      
T = Trace of Precipitation, MM = Missing Value Source: Averaged Metar Reports

Daily Weather History Graph

Daily Weather History Graph

Search for Another Location

Airport or City:

Trip Planner

Search our weather history database for the weather conditions in past years. The results will help you decide how hot, cold, wet, or windy it might be!

Date:

Astronomy

Sep. 04, 2013 Rise Set
Actual Time 6:22 AM AST 6:41 PM AST
Civil Twilight 6:01 AM AST 7:02 PM AST
Nautical Twilight 5:36 AM AST 7:27 PM AST
Astronomical Twilight 5:11 AM AST 7:52 PM AST
Moon 5:31 AM AST (9/4) 6:04 PM AST (9/4)
Length of Visible Light 13h 01m
Length of Day
12h 18m
Waning Crescent, 1% of the Moon is Illuminated
Sep 4
Waning Crescent
Sep 5
New
Sep 12
First Quarter
Sep 19
Full
Sep 26
Last Quarter

Hourly Weather History & Observations

Time (AST) Temp. Heat Index Dew Point Humidity Pressure Visibility Wind Dir Wind Speed Gust Speed Precip Events Conditions
12:00 AM 82.4 °F 92.4 °F 78.8 °F 89% 29.86 in - NE 3.5 mph - N/A   Unknown
1:00 AM 80.6 °F 88.1 °F 78.8 °F 94% 29.83 in - Variable 1.2 mph - N/A   Unknown
2:00 AM 80.6 °F 88.1 °F 78.8 °F 94% - 6.2 mi NE 3.5 mph - N/A   Partly Cloudy
3:00 AM 78.8 °F - 78.8 °F 100% 29.80 in - East 2.3 mph - N/A   Unknown
4:00 AM 78.8 °F - 75.2 °F 89% 29.80 in - SE 5.8 mph - N/A   Unknown
5:00 AM 78.8 °F - 77.0 °F 94% 29.80 in - ESE 4.6 mph - N/A   Unknown
6:00 AM 78.8 °F - 78.8 °F 100% 29.80 in - SE 1.2 mph - N/A   Unknown
7:00 AM 80.6 °F 87.1 °F 77.0 °F 89% 29.83 in - Variable 2.3 mph - N/A   Unknown
8:00 AM 82.4 °F 92.4 °F 78.8 °F 89% 29.86 in 6.2 mi ESE 4.6 mph - N/A   Partly Cloudy
9:00 AM 82.4 °F 92.4 °F 78.8 °F 89% 29.86 in 6.2 mi East 3.5 mph - N/A   Scattered Clouds
10:00 AM 84.2 °F 96.1 °F 78.8 °F 84% 29.89 in 6.2 mi South 8.1 mph - N/A   Scattered Clouds
11:00 AM 86.0 °F 99.3 °F 78.8 °F 79% 29.89 in 6.2 mi South 9.2 mph - N/A   Scattered Clouds
12:00 PM 87.8 °F 102.5 °F 78.8 °F 75% 29.89 in 6.2 mi SSW 6.9 mph - N/A   Scattered Clouds
1:00 PM 87.8 °F 102.5 °F 78.8 °F 75% 29.86 in 6.2 mi SSW 6.9 mph - N/A   Scattered Clouds
2:00 PM 88 °F - 78 °F 65% 29.83 in 25 mi WSW 8.1 mph - -   Partly Cloudy
2:00 PM 87.8 °F 102.5 °F 78.8 °F 75% 29.83 in 6.2 mi WSW 8.1 mph - N/A   Partly Cloudy
3:00 PM 87.8 °F 99.7 °F 77.0 °F 70% 29.80 in 6.2 mi West 5.8 mph - N/A   Partly Cloudy
4:00 PM 89.6 °F 102.2 °F 77.0 °F 66% 29.77 in 6.2 mi WNW 4.6 mph - N/A   Partly Cloudy
5:00 PM 88 °F - 76 °F 59% 29.78 in 25 mi NE 9.2 mph - -   Scattered Clouds
5:00 PM 87.8 °F 97.6 °F 75.2 °F 66% 29.77 in 6.2 mi NE 9.2 mph - N/A   Partly Cloudy
5:55 PM 86.0 °F 95.1 °F 75.2 °F 70% 29.77 in - NE 8.1 mph - N/A   Unknown
7:00 PM 84.2 °F 94.1 °F 77.0 °F 79% 29.80 in 6.2 mi NE 8.1 mph - N/A   Partly Cloudy
8:00 PM 84 °F - 78 °F 76% 29.84 in 25 mi NE 5.8 mph - -   Scattered Clouds
8:00 PM 84.2 °F 94.1 °F 77.0 °F 79% 29.83 in 6.2 mi NE 5.8 mph - N/A   Partly Cloudy
11:00 PM 82.4 °F 92.4 °F 78.8 °F 89% 29.89 in 6.2 mi East 4.6 mph - N/A   Partly Cloudy